period_start,C,m1,H,J0,J1,J2,J3,J4,J5,JA,JB,JC,JD,JJ,JK,JN,#
2014-07-12 00:03:52,-0.02,0.32,0.00,27.69,33.37,35.31,9.46,37.93,1018.10,2012.07,3377.82,3173.58,3441.12,500.33,489.88,19.66,0000 0000 0000 0000 000000
2014-07-12 00:08:53,0.07,0.33,0.00,27.60,33.29,35.11,9.48,38.04,1018.13,2012.75,3378.04,3174.02,3441.90,500.02,489.89,19.71,0000 0000 0000 0000 000000
2014-07-12 00:13:54,-0.04,0.33,0.00,27.56,33.20,34.93,9.49,38.02,1018.13,2012.99,3378.72,3174.71,3442.39,500.06,489.92,19.75,0000 0000 0000 0000 000000
2014-07-12 00:18:55,0.00,0.32,0.00,27.52,33.12,34.74,9.41,37.86,1018.20,2013.09,3379.02,3175.09,3442.99,499.76,489.78,19.79,0000 0000 0000 0000 000000
2014-07-12 00:23:56,0.03,0.32,0.00,27.46,33.03,34.69,9.43,37.80,1018.21,2013.77,3379.70,3175.88,3443.67,499.83,489.90,19.83,0000 0000 0000 0000 000000
2014-07-12 00:28:57,-0.03,0.33,0.00,27.41,32.95,34.65,9.40,37.72,1018.14,2013.99,3380.10,3176.36,3444.20,499.40,489.65,19.87,0000 0000 0000 0000 000000
2014-07-12 00:33:58,-0.00,0.32,0.00,27.38,32.86,34.55,9.46,37.70,1018.11,2014.19,3380.85,3176.97,3444.94,499.76,490.17,19.92,0000 0000 0000 0000 000000
2014-07-12 00:38:59,0.04,0.33,0.00,27.36,32.78,34.44,9.47,37.67,1018.09,2014.87,3381.01,3177.47,3445.41,500.44,490.64,19.96,0000 0000 0000 0000 000000
2014-07-12 00:44:00,0.02,0.33,0.00,27.27,32.70,34.39,9.40,37.74,1018.08,2015.02,3381.01,3177.61,3445.56,500.23,490.60,20.00,0000 0000 0000 0000 000000
2014-07-12 00:49:01,0.10,0.33,0.00,27.23,32.61,34.43,9.44,37.84,1018.08,2015.62,3380.97,3177.03,3445.01,499.79,490.23,20.04,0000 0000 0000 0000 000000
2014-07-12 00:54:03,-0.01,0.33,0.00,27.20,32.53,34.36,9.33,37.86,1018.08,2015.98,3381.06,3177.47,3445.42,499.63,490.28,20.08,0000 0000 0000 0000 000000
2014-07-12 00:59:04,-0.03,0.33,0.00,27.15,32.45,34.28,9.47,38.13,1018.05,2016.03,3381.87,3178.02,3446.01,500.07,490.52,20.13,0000 0000 0000 0000 000000
2014-07-12 01:04:05,0.05,0.33,0.00,27.08,32.37,34.14,9.40,38.05,1018.05,2016.77,3382.08,3178.78,3446.81,499.77,490.39,20.17,0000 0000 0000 0000 000000
2014-07-12 01:09:07,-0.01,0.33,0.00,27.03,32.29,34.16,9.47,38.11,1018.08,2016.99,3382.75,3179.03,3447.10,499.96,490.67,20.21,0000 0000 0000 0000 000000
2014-07-12 01:14:08,-0.03,0.33,0.00,27.01,32.21,34.03,9.42,38.02,1018.08,2017.04,3383.02,3179.79,3447.91,499.75,490.53,20.25,0000 0000 0000 0000 000000
2014-07-12 01:19:09,0.06,0.33,0.00,27.00,32.13,33.93,9.48,37.98,1018.07,2017.73,3383.73,3180.08,3448.28,500.27,491.04,20.29,0000 0000 0000 0000 000000
2014-07-12 01:24:11,-0.02,0.33,0.00,27.01,32.06,33.87,9.44,38.04,1018.08,2017.98,3383.99,3180.86,3448.95,500.21,490.83,20.34,0000 0000 0000 0000 000000
2014-07-12 01:29:12,-0.01,0.33,0.00,27.03,31.99,33.86,9.44,38.09,1018.08,2018.07,3384.36,3181.04,3449.37,500.07,490.92,20.38,0000 0000 0000 0000 000000
2014-07-12 01:34:12,0.18,0.33,0.00,27.06,31.92,33.97,9.45,38.00,1018.08,2018.65,3383.86,3180.52,3448.73,499.91,490.69,20.42,0000 0000 0000 0000 000000
2014-07-12 01:39:13,0.07,0.34,0.00,27.09,31.86,34.00,9.38,38.13,1018.08,2018.95,3382.25,3178.95,3446.86,499.71,490.50,20.46,0000 0000 0000 0000 000000
2014-07-12 01:44:15,-0.01,0.34,0.00,27.14,31.81,34.05,9.44,38.00,1018.08,2019.00,3382.92,3179.07,3447.06,500.22,490.72,20.50,0000 0000 0000 0000 000000
2014-07-12 01:49:16,-0.01,0.34,0.00,27.21,31.76,34.10,9.44,37.90,1018.08,2019.15,3383.00,3179.73,3447.78,500.06,490.44,20.54,0000 0000 0000 0000 000000
2014-07-12 01:54:17,0.05,0.34,0.00,27.22,31.71,34.15,9.54,37.98,1018.08,2019.76,3383.29,3179.99,3447.99,500.61,490.92,20.59,0000 0000 0000 0000 000000
2014-07-12 01:59:17,0.07,0.34,0.00,27.17,31.67,34.10,9.43,38.03,1018.06,2019.98,3383.01,3179.51,3447.51,499.86,490.43,20.63,0000 0000 0000 0000 000000
2014-07-12 02:04:18,0.00,0.35,0.00,27.17,31.63,34.09,9.46,38.04,1017.95,2019.99,3382.39,3179.02,3447.01,500.41,490.79,20.67,0000 0000 0000 0000 000000
2014-07-12 02:09:19,-0.01,0.35,0.00,27.16,31.60,34.11,9.42,37.81,1017.73,2020.00,3382.53,3179.04,3447.03,500.35,490.52,20.71,0000 0000 0000 0000 000000
2014-07-12 02:14:20,0.02,0.34,0.00,27.15,31.57,34.08,9.50,38.00,1017.62,2020.14,3382.69,3179.38,3447.31,500.23,490.49,20.75,0000 0000 0000 0000 000000
2014-07-12 02:19:21,0.06,0.35,0.00,27.14,31.54,34.06,9.46,38.04,1017.61,2020.61,3382.70,3179.06,3447.04,500.23,490.58,20.80,0000 0000 0000 0000 000000
2014-07-12 02:24:22,0.00,0.35,0.00,27.09,31.51,34.03,9.36,37.95,1017.63,2020.88,3382.93,3179.43,3447.30,499.93,490.34,20.84,0000 0000 0000 0000 000000
2014-07-12 02:29:24,0.04,0.35,0.00,27.06,31.48,34.00,9.41,37.98,1017.77,2020.98,3382.28,3179.19,3447.14,499.76,490.46,20.88,0000 0000 0000 0000 000000
2014-07-12 02:34:25,-0.00,0.35,0.00,27.06,31.44,34.01,9.40,37.94,1017.89,2020.99,3382.09,3179.00,3446.99,500.35,490.92,20.92,0000 0000 0000 0000 000000
2014-07-12 02:39:26,-0.02,0.35,0.00,27.03,31.41,34.00,9.39,38.02,1017.88,2020.99,3382.68,3179.12,3447.02,499.95,490.73,20.96,0000 0000 0000 0000 000000
2014-07-12 02:44:27,-0.02,0.35,0.00,27.03,31.39,33.95,9.51,37.94,1017.73,2021.01,3382.95,3179.53,3447.19,500.28,490.89,21.00,0000 0000 0000 0000 000000
2014-07-12 02:49:28,-0.01,0.35,0.00,27.04,31.36,33.99,9.41,38.09,1017.83,2021.10,3382.99,3179.94,3447.85,499.97,490.49,21.05,0000 0000 0000 0000 000000
2014-07-12 02:54:29,0.06,0.35,0.00,27.08,31.34,33.99,9.46,37.95,1017.96,2021.47,3383.01,3179.99,3447.98,499.94,490.54,21.09,0000 0000 0000 0000 000000
2014-07-12 02:59:31,0.02,0.35,0.00,27.09,31.32,34.03,9.50,37.98,1017.94,2021.76,3383.06,3179.99,3447.99,500.08,490.71,21.13,0000 0000 0000 0000 000000
2014-07-12 03:04:32,-0.00,0.35,0.00,27.13,31.30,34.04,9.45,38.06,1017.96,2021.93,3383.35,3180.03,3448.00,500.08,490.70,21.17,0000 0000 0000 0000 000000
2014-07-12 03:09:33,-0.00,0.35,0.00,27.14,31.28,34.03,9.40,37.94,1018.05,2021.98,3383.81,3180.14,3448.05,499.90,490.29,21.21,0000 0000 0000 0000 000000
2014-07-12 03:14:34,-0.02,0.35,0.00,27.15,31.27,34.06,9.47,37.86,1018.07,2021.99,3383.97,3180.54,3448.31,500.10,490.63,21.26,0000 0000 0000 0000 000000
2014-07-12 03:19:35,0.03,0.35,0.00,27.17,31.25,34.05,9.48,37.87,1018.07,2021.99,3383.65,3180.11,3448.07,500.07,490.78,21.30,0000 0000 0000 0000 000000
2014-07-12 03:24:37,-0.00,0.35,0.00,27.20,31.25,34.05,9.52,37.91,1018.08,2021.99,3383.79,3180.07,3448.02,500.28,490.68,21.34,0000 0000 0000 0000 000000
2014-07-12 03:29:38,0.00,0.35,0.00,27.21,31.22,34.06,9.42,37.97,1018.08,2021.99,3383.84,3180.15,3448.02,499.76,490.22,21.38,0000 0000 0000 0000 000000
2014-07-12 03:34:39,0.00,0.35,0.00,27.23,31.22,34.09,9.43,37.97,1018.08,2021.99,3383.87,3180.14,3448.01,500.08,490.36,21.42,0000 0000 0000 0000 000000
2014-07-12 03:39:40,0.00,0.35,0.00,27.25,31.22,34.09,9.48,38.02,1018.09,2022.00,3383.86,3180.10,3448.02,500.05,490.42,21.47,0000 0000 0000 0000 000000
2014-07-12 03:44:41,-0.01,0.35,0.00,27.25,31.21,34.12,9.44,38.02,1018.08,2022.01,3383.89,3180.21,3448.04,499.83,490.21,21.51,0000 0000 0000 0000 000000
2014-07-12 03:49:42,-0.01,0.35,0.00,27.25,31.20,34.10,9.41,37.88,1018.08,2022.00,3383.97,3180.56,3448.07,499.91,490.23,21.55,0000 0000 0000 0000 000000
2014-07-12 03:54:42,0.01,0.35,0.00,27.26,31.20,34.12,9.52,38.01,1018.08,2022.02,3383.93,3180.44,3448.07,500.29,490.64,21.59,0000 0000 0000 0000 000000
2014-07-12 03:59:43,-0.01,0.35,0.00,27.27,31.20,34.13,9.31,37.82,1018.08,2022.02,3383.97,3180.56,3448.15,499.83,490.00,21.63,0000 0000 0000 0000 000000
2014-07-12 04:04:45,-0.00,0.35,0.00,27.29,31.20,34.13,9.44,38.02,1018.08,2022.04,3383.98,3180.83,3448.32,499.87,490.27,21.68,0000 0000 0000 0000 000000
2014-07-12 04:09:46,-0.00,0.35,0.00,27.30,31.20,34.15,9.41,37.98,1018.08,2022.08,3383.99,3180.85,3448.40,499.71,490.20,21.72,0000 0000 0000 0000 000000
2014-07-12 04:14:47,0.00,0.35,0.00,27.27,31.20,34.16,9.48,38.01,1018.08,2022.08,3383.97,3180.82,3448.31,500.27,490.43,21.76,0000 0000 0000 0000 000000
2014-07-12 04:19:48,0.00,0.35,0.00,27.26,31.20,34.18,9.50,37.99,1018.08,2022.03,3383.96,3180.69,3448.20,500.45,491.00,21.80,0000 0000 0000 0000 000000
2014-07-12 04:24:49,-0.00,0.35,0.00,27.28,31.20,34.14,9.50,38.04,1018.08,2022.05,3383.97,3180.75,3448.26,500.33,490.68,21.84,0000 0000 0000 0000 000000
2014-07-12 04:29:51,0.00,0.35,0.00,27.27,31.20,34.14,9.56,38.15,1018.08,2022.09,3383.98,3180.89,3448.35,500.40,490.64,21.88,0000 0000 0000 0000 000000
2014-07-12 04:34:52,-0.00,0.35,0.00,27.29,31.20,34.13,9.45,38.01,1018.09,2022.10,3383.97,3180.90,3448.33,499.84,490.15,21.93,0000 0000 0000 0000 000000
2014-07-12 04:39:52,0.00,0.35,0.00,27.34,31.20,34.16,9.47,38.23,1018.09,2022.12,3383.96,3180.93,3448.39,500.24,490.44,21.97,0000 0000 0000 0000 000000
2014-07-12 04:44:54,0.00,0.35,0.00,27.35,31.20,34.17,9.52,38.12,1018.10,2022.10,3383.96,3180.89,3448.28,499.81,490.09,22.01,0000 0000 0000 0000 000000
2014-07-12 04:49:55,0.00,0.35,0.00,27.36,31.20,34.17,9.39,38.03,1018.13,2022.08,3383.91,3180.79,3448.12,500.16,490.38,22.05,0000 0000 0000 0000 000000
2014-07-12 04:54:56,-0.00,0.35,0.00,27.39,31.20,34.18,9.46,37.91,1018.25,2022.15,3383.92,3180.87,3448.16,499.81,489.95,22.09,0000 0000 0000 0000 000000
2014-07-12 04:59:57,0.01,0.35,0.00,27.42,31.21,34.18,9.39,38.14,1018.36,2022.10,3383.74,3180.66,3448.10,499.58,490.16,22.14,0000 0000 0000 0000 000000
2014-07-12 05:04:58,-0.01,0.35,0.00,27.46,31.22,34.18,9.40,38.13,1018.36,2022.07,3383.63,3180.60,3448.04,499.92,490.17,22.18,0000 0000 0000 0000 000000
2014-07-12 05:09:59,0.01,0.35,0.00,27.44,31.22,34.18,9.42,38.14,1018.48,2022.13,3383.57,3180.60,3448.07,500.12,490.53,22.22,0000 0000 0000 0000 000000
2014-07-12 05:15:00,0.01,0.35,0.00,27.44,31.22,34.18,9.37,38.13,1018.56,2022.03,3383.11,3180.20,3448.00,499.55,489.93,22.26,0000 0000 0000 0000 000000
2014-07-12 05:20:01,0.01,0.35,0.00,27.46,31.23,34.21,9.39,37.94,1018.57,2022.04,3383.03,3180.09,3448.00,499.74,490.05,22.30,0000 0000 0000 0000 000000
2014-07-12 05:25:02,-0.00,0.35,0.00,27.50,31.25,34.23,9.42,37.77,1018.57,2022.05,3383.08,3180.12,3448.00,499.84,490.11,22.35,0000 0000 0000 0000 000000
2014-07-12 05:30:04,-0.00,0.35,0.00,27.51,31.25,34.23,9.47,37.97,1018.58,2022.02,3383.03,3180.07,3448.00,499.79,490.10,22.39,0000 0000 0000 0000 000000
2014-07-12 05:35:05,0.00,0.35,0.00,27.48,31.25,34.24,9.33,37.83,1018.58,2022.01,3383.01,3180.02,3448.00,499.90,490.14,22.43,0000 0000 0000 0000 000000
2014-07-12 05:40:06,0.00,0.35,0.00,27.41,31.26,34.22,9.46,38.03,1018.58,2022.00,3383.00,3180.01,3447.98,500.26,490.66,22.47,0000 0000 0000 0000 000000
2014-07-12 05:45:07,0.00,0.35,0.00,27.39,31.27,34.23,9.47,37.97,1018.59,2022.00,3383.00,3180.00,3447.90,500.37,490.63,22.51,0000 0000 0000 0000 000000
2014-07-12 05:50:08,0.01,0.35,0.00,27.49,31.27,34.27,9.49,37.83,1018.58,2022.00,3382.95,3179.98,3447.25,499.84,490.09,22.56,0000 0000 0000 0000 000000
2014-07-12 05:55:09,0.00,0.35,0.00,27.48,31.27,34.25,9.43,37.93,1018.61,2022.00,3382.85,3179.93,3447.03,499.28,489.71,22.60,0000 0000 0000 0000 000000
2014-07-12 06:00:10,-0.00,0.35,0.00,27.50,31.28,34.26,9.52,37.88,1018.60,2022.00,3382.93,3179.95,3447.07,500.37,490.38,22.64,0000 0000 0000 0000 000000
2014-07-12 06:05:11,0.01,0.35,0.00,27.50,31.29,34.25,9.36,37.73,1018.61,2022.00,3382.74,3179.83,3447.02,499.63,489.98,22.68,0000 0000 0000 0000 000000
2014-07-12 06:10:12,0.03,0.35,0.00,27.50,31.30,34.28,9.40,37.77,1018.59,2021.99,3382.13,3179.13,3446.94,499.77,490.02,22.72,0000 0000 0000 0000 000000
2014-07-12 06:15:13,0.02,0.36,0.00,27.51,31.30,34.28,9.44,37.86,1018.60,2021.98,3381.68,3179.00,3446.22,500.09,490.17,22.77,0000 0000 0000 0000 000000
2014-07-12 06:20:15,0.07,0.36,0.00,27.51,31.31,34.28,9.48,37.83,1018.59,2021.98,3380.72,3178.40,3445.65,499.95,490.28,22.81,0000 0000 0000 0000 000000
2014-07-12 06:25:16,0.53,0.37,0.00,27.51,31.32,34.30,9.40,37.80,1018.59,2021.95,3373.69,3173.24,3440.45,499.97,490.18,22.85,0000 0000 0000 0000 000000
2014-07-12 06:30:17,0.06,0.38,0.00,27.49,31.33,34.29,9.42,37.73,1018.59,2021.85,3369.13,3170.03,3437.04,499.94,490.14,22.89,0000 0000 0000 0000 000000
2014-07-12 06:35:18,-0.01,0.38,0.00,27.50,31.35,34.31,9.41,37.85,1018.60,2021.84,3369.07,3169.99,3437.00,500.19,490.51,22.93,0000 0000 0000 0000 000000
2014-07-12 06:40:20,-0.02,0.38,0.00,27.48,31.35,34.32,9.43,37.83,1018.60,2021.80,3369.06,3169.99,3436.99,499.88,490.08,22.97,0000 0000 0000 0000 000000
2014-07-12 06:45:21,0.04,0.38,0.00,27.41,31.37,34.33,9.38,37.73,1018.62,2021.52,3368.42,3169.30,3436.24,499.87,490.17,23.02,0000 0000 0000 0000 000000
2014-07-12 06:50:21,0.07,0.39,0.00,27.38,31.37,34.34,9.47,37.66,1018.60,2021.25,3367.04,3167.91,3434.22,500.68,491.04,23.06,0000 0000 0000 0000 000000
2014-07-12 06:55:23,-0.01,0.39,0.00,27.34,31.37,34.37,9.41,37.67,1018.57,2021.18,3366.99,3167.78,3434.07,500.00,490.27,23.10,0000 0000 0000 0000 000000
2014-07-12 07:00:24,0.00,0.39,0.00,27.32,31.37,34.37,9.41,37.65,1018.57,2021.21,3366.98,3167.79,3434.08,500.12,490.51,23.14,0000 0000 0000 0000 000000
2014-07-12 07:05:25,-0.00,0.39,0.00,27.30,31.39,34.35,9.43,37.61,1018.57,2021.16,3366.98,3167.80,3434.06,499.84,490.37,23.18,0000 0000 0000 0000 000000
2014-07-12 07:10:26,0.01,0.39,0.00,27.29,31.39,34.35,9.45,37.76,1018.57,2021.17,3366.97,3167.60,3434.04,500.18,490.73,23.23,0000 0000 0000 0000 000000
2014-07-12 07:15:27,0.00,0.39,0.00,27.26,31.40,34.34,9.39,37.73,1018.57,2021.13,3366.97,3167.59,3434.01,500.10,490.88,23.27,0000 0000 0000 0000 000000
2014-07-12 07:20:28,-0.01,0.39,0.00,27.25,31.40,34.31,9.37,37.71,1018.57,2021.13,3366.93,3167.54,3434.02,499.75,490.30,23.31,0000 0000 0000 0000 000000
2014-07-12 07:25:29,0.00,0.39,0.00,27.25,31.40,34.32,9.46,37.71,1018.57,2021.07,3366.94,3167.34,3434.01,500.01,490.59,23.35,0000 0000 0000 0000 000000
2014-07-12 07:30:30,0.00,0.39,0.00,27.22,31.40,34.28,9.45,37.71,1018.57,2021.03,3366.84,3167.13,3434.00,500.06,490.82,23.39,0000 0000 0000 0000 000000
2014-07-12 07:35:31,0.02,0.39,0.00,27.16,31.39,34.22,9.43,37.63,1018.57,2021.03,3366.18,3167.07,3433.99,499.95,490.79,23.43,0000 0000 0000 0000 000000
2014-07-12 07:40:32,-0.00,0.39,0.00,27.15,31.38,34.18,9.45,37.76,1018.57,2021.01,3366.03,3167.02,3433.99,500.16,490.78,23.48,0000 0000 0000 0000 000000
2014-07-12 07:45:34,0.00,0.39,0.00,27.09,31.37,34.02,9.51,37.74,1018.57,2021.03,3366.01,3167.02,3433.99,500.31,491.25,23.52,0000 0000 0000 0000 000000
2014-07-12 07:50:34,0.05,0.39,0.00,27.07,31.37,33.91,9.49,37.90,1018.54,2021.05,3365.65,3166.62,3433.42,500.07,490.96,23.56,0000 0000 0000 0000 000000
2014-07-12 07:55:36,0.01,0.39,0.00,27.06,31.37,33.87,9.49,37.84,1018.51,2021.04,3365.01,3166.01,3432.89,500.30,491.24,23.60,0000 0000 0000 0000 000000
2014-07-12 08:00:36,0.00,0.39,0.00,27.07,31.35,33.85,9.37,37.69,1018.50,2021.06,3364.98,3166.00,3432.74,499.47,490.56,23.64,0000 0000 0000 0000 000000
2014-07-12 08:05:38,0.01,0.39,0.00,27.07,31.35,33.86,9.45,37.70,1018.57,2021.06,3364.97,3166.00,3432.62,499.73,490.54,23.69,0000 0000 0000 0000 000000
2014-07-12 08:10:39,-0.01,0.39,0.00,27.07,31.35,33.90,9.46,37.83,1018.57,2021.06,3364.97,3166.00,3432.78,500.01,490.89,23.73,0000 0000 0000 0000 000000
2014-07-12 08:15:40,0.02,0.39,0.00,27.07,31.35,33.92,9.42,37.53,1018.58,2021.09,3364.72,3166.00,3432.46,500.11,491.20,23.77,0000 0000 0000 0000 000000
2014-07-12 08:20:41,0.01,0.39,0.00,27.09,31.35,33.95,9.37,37.60,1018.58,2021.08,3364.20,3165.99,3432.14,499.83,490.73,23.81,0000 0000 0000 0000 000000
2014-07-12 08:25:42,-0.00,0.39,0.00,27.09,31.35,33.93,9.46,37.76,1018.58,2021.04,3364.08,3165.96,3432.05,500.13,490.97,23.85,0000 0000 0000 0000 000000
2014-07-12 08:30:43,0.00,0.39,0.00,27.08,31.35,33.95,9.53,37.81,1018.59,2021.04,3364.05,3165.93,3432.01,500.02,490.97,23.90,0000 0000 0000 0000 000000
2014-07-12 08:35:44,0.03,0.39,0.00,27.09,31.35,33.95,9.59,38.06,1018.57,2021.02,3363.80,3165.54,3431.89,500.19,491.01,23.94,0000 0000 0000 0000 000000
2014-07-12 08:40:45,0.03,0.40,0.00,27.08,31.35,33.99,9.47,37.83,1018.57,2021.02,3363.03,3165.00,3431.11,499.82,490.72,23.98,0000 0000 0000 0000 000000
2014-07-12 08:45:46,0.00,0.40,0.00,27.07,31.36,33.98,9.47,37.73,1018.57,2021.02,3362.99,3164.98,3431.03,500.07,491.02,24.02,0000 0000 0000 0000 000000
2014-07-12 08:50:47,0.02,0.40,0.00,27.07,31.37,34.03,9.44,37.82,1018.58,2021.01,3362.63,3164.74,3430.99,499.86,490.71,24.06,0000 0000 0000 0000 000000
2014-07-12 08:55:48,0.06,0.40,0.00,27.07,31.37,34.01,9.44,37.92,1018.57,2021.01,3361.31,3164.03,3430.18,500.09,490.93,24.10,0000 0000 0000 0000 000000
2014-07-12 09:00:49,0.00,0.40,0.00,27.07,31.37,33.98,9.50,37.92,1018.56,2021.02,3361.00,3163.94,3430.00,500.32,491.33,24.15,0000 0000 0000 0000 000000
2014-07-12 09:05:50,0.00,0.40,0.00,27.06,31.37,33.98,9.34,38.02,1018.46,2021.01,3360.99,3163.90,3430.00,499.46,490.21,24.19,0000 0000 0000 0000 000000
2014-07-12 09:10:51,0.21,0.40,0.00,27.06,31.37,33.98,9.50,37.85,1018.57,2021.00,3359.59,3162.11,3428.20,499.83,490.76,24.23,0000 0000 0000 0000 000000
2014-07-12 09:15:53,0.10,0.41,0.00,27.05,31.38,34.00,9.41,37.62,1018.56,2021.00,3357.04,3159.06,3425.01,500.03,491.05,24.27,0000 0000 0000 0000 000000
2014-07-12 09:20:54,0.00,0.41,0.00,27.05,31.39,33.99,9.50,37.86,1018.47,2021.00,3356.94,3158.98,3424.88,500.17,491.02,24.31,0000 0000 0000 0000 000000
2014-07-12 09:25:55,0.01,0.41,0.00,27.04,31.40,33.97,9.41,37.66,1018.52,2021.00,3356.85,3158.95,3424.60,500.03,490.75,24.36,0000 0000 0000 0000 000000
2014-07-12 09:30:56,-0.01,0.41,0.00,27.04,31.40,33.98,9.43,37.61,1018.25,2021.00,3356.84,3158.97,3424.75,499.79,490.65,24.40,0000 0000 0000 0000 000000
2014-07-12 09:35:58,0.01,0.41,0.00,27.02,31.40,34.01,9.45,37.76,1018.37,2021.00,3356.62,3158.95,3424.65,499.70,490.20,24.44,0000 0000 0000 0000 000000
2014-07-12 09:40:59,0.02,0.41,0.00,27.02,31.40,34.00,9.36,37.80,1018.55,2021.00,3356.15,3158.83,3424.24,499.80,490.74,24.48,0000 0000 0000 0000 000000
2014-07-12 09:46:00,0.04,0.42,0.00,27.02,31.40,33.98,9.39,37.81,1018.57,2021.00,3355.38,3158.11,3424.00,499.48,490.46,24.52,0000 0000 0000 0000 000000
2014-07-12 09:51:01,0.00,0.42,0.00,27.04,31.40,34.06,9.38,37.88,1018.56,2021.00,3355.00,3158.00,3423.98,499.78,490.83,24.57,0000 0000 0000 0000 000000
2014-07-12 09:56:02,0.01,0.42,0.00,27.05,31.40,34.04,9.45,37.98,1018.57,2021.00,3354.84,3157.92,3423.78,500.40,491.37,24.61,0000 0000 0000 0000 000000
2014-07-12 10:01:04,0.05,0.42,0.00,27.05,31.40,34.07,9.46,38.02,1018.57,2021.00,3354.04,3157.14,3423.03,500.40,491.13,24.65,0000 0000 0000 0000 000000
2014-07-12 10:06:05,0.00,0.42,0.00,27.05,31.40,34.07,9.46,38.02,1018.57,2021.00,3353.91,3157.01,3422.97,500.17,491.15,24.69,0000 0000 0000 0000 000000
2014-07-12 10:11:06,0.02,0.42,0.00,27.05,31.40,34.07,9.45,38.11,1018.57,2021.00,3353.17,3156.99,3422.62,499.87,490.68,24.73,0000 0000 0000 0000 000000
2014-07-12 10:16:08,0.09,0.42,0.00,27.05,31.40,34.07,9.53,37.96,1018.58,2021.00,3351.72,3156.08,3421.30,499.95,490.93,24.78,0000 0000 0000 0000 000000
2014-07-12 10:21:09,0.01,0.43,0.00,27.05,31.40,34.07,9.52,37.97,1018.58,2021.00,3351.08,3155.64,3421.00,500.16,491.10,24.82,0000 0000 0000 0000 000000
2014-07-12 10:26:09,0.02,0.43,0.00,27.05,31.40,34.11,9.43,37.98,1018.64,2021.00,3351.02,3155.20,3420.98,500.13,491.00,24.86,0000 0000 0000 0000 000000
2014-07-12 10:31:11,0.00,0.43,0.00,27.02,31.40,34.08,9.40,38.13,1018.74,2021.00,3351.01,3155.09,3420.98,499.57,490.62,24.90,0000 0000 0000 0000 000000
2014-07-12 10:36:12,-0.00,0.43,0.00,27.01,31.40,34.04,9.44,38.10,1018.58,2021.00,3351.04,3155.20,3420.98,499.91,490.84,24.94,0000 0000 0000 0000 000000
2014-07-12 10:41:12,-0.00,0.43,0.00,27.00,31.40,34.12,9.46,38.17,1018.58,2021.00,3351.05,3155.23,3420.98,500.08,491.18,24.99,0000 0000 0000 0000 000000
2014-07-12 10:46:14,0.01,0.43,0.00,27.05,31.40,33.96,9.56,38.14,1018.59,2021.00,3351.00,3155.05,3420.88,500.29,491.24,25.03,0000 0000 0000 0000 000000
2014-07-12 10:51:15,0.01,0.43,0.00,27.12,31.40,33.54,9.52,37.84,1018.67,2021.00,3350.99,3155.00,3420.48,499.88,490.68,25.07,0000 0000 0000 0000 000000
2014-07-12 10:56:16,0.00,0.43,0.00,27.15,31.42,33.73,9.43,37.90,1018.67,2021.00,3350.99,3155.00,3420.09,499.99,490.95,25.11,0000 0000 0000 0000 000000
2014-07-12 11:01:17,0.00,0.43,0.00,27.21,31.44,34.16,9.37,37.96,1018.59,2021.00,3350.99,3155.00,3420.05,499.93,490.78,25.15,0000 0000 0000 0000 000000
2014-07-12 11:06:18,0.00,0.43,0.00,27.22,31.46,34.34,9.47,37.92,1018.66,2021.00,3350.95,3154.95,3420.00,499.76,490.59,25.19,0000 0000 0000 0000 000000
2014-07-12 11:11:19,0.00,0.43,0.00,27.21,31.50,34.22,9.43,37.95,1018.93,2020.97,3350.87,3154.76,3420.00,499.82,490.66,25.24,0000 0000 0000 0000 000000
2014-07-12 11:16:20,0.01,0.43,0.00,27.19,31.53,34.42,9.42,37.87,1018.89,2020.82,3350.37,3154.40,3419.98,499.71,490.67,25.28,0000 0000 0000 0000 000000
2014-07-12 11:21:21,-0.02,0.43,0.00,27.16,31.57,34.74,9.55,37.92,1018.73,2020.55,3350.04,3154.07,3419.93,500.24,490.99,25.32,0000 0000 0000 0000 000000
2014-07-12 11:26:22,0.01,0.43,0.00,27.19,31.60,34.32,9.42,37.81,1018.74,2020.59,3350.07,3154.06,3419.90,499.94,490.84,25.36,0000 0000 0000 0000 000000
2014-07-12 11:31:24,-0.03,0.43,0.00,27.22,31.62,34.42,9.42,37.79,1018.59,2020.20,3350.00,3154.01,3419.22,499.38,490.03,25.40,0000 0000 0000 0000 000000
2014-07-12 11:36:25,-0.01,0.43,0.00,27.26,31.66,34.36,9.48,37.88,1018.57,2020.04,3350.00,3153.99,3419.01,500.28,490.76,25.45,0000 0000 0000 0000 000000
2014-07-12 11:41:26,-0.00,0.43,0.00,27.32,31.69,34.55,9.51,37.85,1018.57,2020.01,3349.97,3153.94,3419.00,499.93,490.41,25.49,0000 0000 0000 0000 000000
2014-07-12 11:46:27,0.04,0.43,0.00,27.36,31.71,34.72,9.46,37.73,1018.59,2020.00,3349.46,3153.26,3418.93,500.19,490.59,25.53,0000 0000 0000 0000 000000
2014-07-12 11:51:28,0.01,0.43,0.00,27.37,31.74,34.79,9.42,37.87,1018.57,2019.99,3349.08,3153.05,3418.55,500.11,490.55,25.57,0000 0000 0000 0000 000000
2014-07-12 11:56:29,0.00,0.43,0.00,27.37,31.76,34.87,9.41,37.92,1018.57,2019.98,3349.01,3153.01,3418.20,499.86,490.30,25.61,0000 0000 0000 0000 000000
2014-07-12 12:01:30,0.00,0.43,0.00,27.37,31.77,34.82,9.44,37.73,1018.57,2019.98,3349.00,3153.00,3418.04,499.89,490.20,25.66,0000 0000 0000 0000 000000
2014-07-12 12:06:31,-0.00,0.43,0.00,27.36,31.79,34.67,9.38,37.48,1018.57,2019.96,3349.00,3153.00,3418.03,499.39,490.12,25.70,0000 0000 0000 0000 000000
2014-07-12 12:11:32,-0.01,0.43,0.00,27.34,31.80,34.56,9.42,37.80,1018.52,2019.90,3349.00,3153.00,3418.01,499.55,490.03,25.74,0000 0000 0000 0000 000000
2014-07-12 12:16:33,-0.01,0.43,0.00,27.31,31.80,34.49,9.45,37.83,1018.51,2019.70,3348.97,3153.00,3418.00,499.98,490.45,25.78,0000 0000 0000 0000 000000
2014-07-12 12:21:34,-0.04,0.43,0.00,27.29,31.80,34.41,9.44,37.92,1018.42,2019.50,3348.94,3152.98,3418.00,500.02,490.45,25.82,0000 0000 0000 0000 000000
2014-07-12 12:26:35,-0.01,0.42,0.00,27.27,31.79,34.32,9.46,37.57,1018.33,2019.23,3348.91,3152.96,3417.98,500.18,490.82,25.86,0000 0000 0000 0000 000000
2014-07-12 12:31:36,0.04,0.43,0.00,27.24,31.77,34.29,9.38,37.66,1018.33,2019.50,3348.96,3152.97,3417.99,499.79,490.22,25.91,0000 0000 0000 0000 000000
2014-07-12 12:36:37,-0.02,0.43,0.00,27.22,31.77,34.28,9.47,37.68,1018.40,2019.46,3348.96,3152.98,3417.99,500.29,490.92,25.95,0000 0000 0000 0000 000000
2014-07-12 12:41:38,0.02,0.43,0.00,27.20,31.77,34.25,9.45,37.67,1018.39,2019.60,3348.96,3152.98,3417.99,500.01,490.57,25.99,0000 0000 0000 0000 000000
2014-07-12 12:46:40,0.00,0.43,0.00,27.18,31.75,34.19,9.38,37.52,1018.36,2019.56,3348.94,3152.99,3417.99,499.95,490.50,26.03,0000 0000 0000 0000 000000
2014-07-12 12:51:41,-0.00,0.43,0.00,27.16,31.75,34.18,9.46,37.41,1018.17,2019.69,3348.93,3152.99,3417.99,499.84,490.44,26.07,0000 0000 0000 0000 000000
2014-07-12 12:56:42,0.00,0.43,0.00,27.16,31.73,34.16,9.46,37.68,1018.15,2019.58,3348.83,3152.98,3417.99,500.26,490.84,26.12,0000 0000 0000 0000 000000
2014-07-12 13:01:43,0.02,0.43,0.00,27.16,31.72,34.22,9.41,37.55,1018.15,2019.78,3348.93,3152.99,3417.99,500.15,490.58,26.16,0000 0000 0000 0000 000000